StationID,Date,MaxTemp,MinTemp,Precipitation,Snowfall,SnowDepth
"NOE00134502","1972-08-31",,,12.00,,
"NOE00134502","1972-09-01",,,2.00,,0.00
"NOE00134502","1972-09-02",,,25.00,,0.00
"NOE00134502","1972-09-03",,,4.00,,0.00
"NOE00134502","1972-09-04",,,2.00,,0.00
"NOE00134502","1972-09-05",,,0.00,,0.00
"NOE00134502","1972-09-06",,,35.00,,0.00
"NOE00134502","1972-09-07",,,238.00,,0.00
"NOE00134502","1972-09-08",,,49.00,,0.00
"NOE00134502","1972-09-09",,,218.00,,0.00
"NOE00134502","1972-09-10",,,7.00,,0.00
"NOE00134502","1972-09-11",,,24.00,,0.00
"NOE00134502","1972-09-12",,,13.00,,0.00
"NOE00134502","1972-09-13",,,18.00,,0.00
"NOE00134502","1972-09-14",,,20.00,,0.00
"NOE00134502","1972-09-15",,,1.00,,0.00
"NOE00134502","1972-09-16",,,1.00,,0.00
"NOE00134502","1972-09-17",,,1.00,,0.00
"NOE00134502","1972-09-18",,,1.00,,0.00
"NOE00134502","1972-09-19",,,1.00,,0.00
"NOE00134502","1972-09-20",,,3.00,,0.00
"NOE00134502","1972-09-21",,,216.00,,0.00
"NOE00134502","1972-09-22",,,42.00,,0.00
"NOE00134502","1972-09-23",,,0.00,,0.00
"NOE00134502","1972-09-24",,,0.00,,0.00
"NOE00134502","1972-09-25",,,3.00,,0.00
"NOE00134502","1972-09-26",,,1.00,,0.00
"NOE00134502","1972-09-27",,,0.00,,0.00
"NOE00134502","1972-09-28",,,0.00,,0.00
"NOE00134502","1972-09-29",,,0.00,,0.00
"NOE00134502","1972-09-30",,,1.00,,0.00
"NOE00134502","1972-10-01",,,1.00,,0.00
"NOE00134502","1972-10-02",,,1.00,,0.00
"NOE00134502","1972-10-03",,,48.00,,0.00
"NOE00134502","1972-10-04",,,209.00,,0.00
"NOE00134502","1972-10-05",,,8.00,,0.00
"NOE00134502","1972-10-06",,,1.00,,0.00
"NOE00134502","1972-10-07",,,1.00,,0.00
"NOE00134502","1972-10-08",,,1.00,,0.00
"NOE00134502","1972-10-09",,,14.00,,0.00
"NOE00134502","1972-10-10",,,127.00,,0.00
"NOE00134502","1972-10-11",,,1.00,,0.00
"NOE00134502","1972-10-12",,,0.00,,0.00
"NOE00134502","1972-10-13",,,1.00,,0.00
"NOE00134502","1972-10-14",,,4.00,,0.00
"NOE00134502","1972-10-15",,,7.00,,0.00
"NOE00134502","1972-10-16",,,14.00,,0.00
"NOE00134502","1972-10-17",,,1.00,,0.00
"NOE00134502","1972-10-18",,,59.00,,0.00
"NOE00134502","1972-10-19",,,4.00,,0.00
"NOE00134502","1972-10-20",,,10.00,,0.00
"NOE00134502","1972-10-21",,,37.00,,0.00
"NOE00134502","1972-10-22",,,239.00,,0.00
"NOE00134502","1972-10-23",,,217.00,,0.00
"NOE00134502","1972-10-24",,,46.00,,0.00
"NOE00134502","1972-10-25",,,240.00,,0.00
"NOE00134502","1972-10-26",,,3.00,,0.00
"NOE00134502","1972-10-27",,,0.00,,0.00
"NOE00134502","1972-10-28",,,0.00,,0.00
"NOE00134502","1972-10-29",,,3.00,,0.00
"NOE00134502","1972-10-30",,,75.00,,0.00
"NOE00134502","1972-10-31",,,1.00,,0.00
"NOE00134502","1972-11-01",,,380.00,,0.00
"NOE00134502","1972-11-02",,,355.00,,0.00
"NOE00134502","1972-11-03",,,57.00,,0.00
"NOE00134502","1972-11-04",,,266.00,,0.00
"NOE00134502","1972-11-05",,,40.00,,0.00
"NOE00134502","1972-11-06",,,235.00,,0.00
"NOE00134502","1972-11-07",,,127.00,,0.00
"NOE00134502","1972-11-08",,,174.00,,0.00
"NOE00134502","1972-11-09",,,319.00,,0.00
"NOE00134502","1972-11-10",,,333.00,,0.00
"NOE00134502","1972-11-11",,,171.00,,0.00
"NOE00134502","1972-11-12",,,55.00,,0.00
"NOE00134502","1972-11-13",,,2.00,,0.00
"NOE00134502","1972-11-14",,,102.00,,0.00
"NOE00134502","1972-11-15",,,49.00,,20.00
"NOE00134502","1972-11-16",,,1.00,,0.00
"NOE00134502","1972-11-17",,,0.00,,0.00
"NOE00134502","1972-11-18",,,0.00,,0.00
"NOE00134502","1972-11-19",,,0.00,,0.00
"NOE00134502","1972-11-20",,,0.00,,0.00
"NOE00134502","1972-11-21",,,0.00,,0.00
"NOE00134502","1972-11-22",,,0.00,,0.00
"NOE00134502","1972-11-23",,,0.00,,0.00
"NOE00134502","1972-11-24",,,21.00,,0.00
"NOE00134502","1972-11-25",,,0.00,,20.00
"NOE00134502","1972-11-26",,,35.00,,20.00
"NOE00134502","1972-11-27",,,125.00,,0.00
"NOE00134502","1972-11-28",,,123.00,,0.00
"NOE00134502","1972-11-29",,,119.00,,0.00
"NOE00134502","1972-11-30",,,276.00,,0.00
"NOE00134502","1972-12-01",,,101.00,,0.00
"NOE00134502","1972-12-02",,,97.00,,0.00
"NOE00134502","1972-12-03",,,60.00,,0.00
"NOE00134502","1972-12-04",,,45.00,,0.00
"NOE00134502","1972-12-05",,,299.00,,0.00
"NOE00134502","1972-12-06",,,65.00,,0.00
"NOE00134502","1972-12-07",,,20.00,,0.00
"NOE00134502","1972-12-08",,,0.00,,0.00
"NOE00134502","1972-12-09",,,85.00,,0.00
"NOE00134502","1972-12-10",,,77.00,,0.00
"NOE00134502","1972-12-11",,,70.00,,0.00
"NOE00134502","1972-12-12",,,237.00,,0.00
"NOE00134502","1972-12-13",,,117.00,,0.00
"NOE00134502","1972-12-14",,,1.00,,0.00
"NOE00134502","1972-12-15",,,2.00,,0.00
"NOE00134502","1972-12-16",,,2.00,,0.00
"NOE00134502","1972-12-17",,,0.00,,0.00
"NOE00134502","1972-12-18",,,0.00,,0.00
"NOE00134502","1972-12-19",,,0.00,,0.00
"NOE00134502","1972-12-20",,,0.00,,0.00
"NOE00134502","1972-12-21",,,1.00,,0.00
"NOE00134502","1972-12-22",,,2.00,,0.00
"NOE00134502","1972-12-23",,,27.00,,0.00
"NOE00134502","1972-12-24",,,12.00,,0.00
"NOE00134502","1972-12-25",,,0.00,,0.00
"NOE00134502","1972-12-26",,,0.00,,0.00
"NOE00134502","1972-12-27",,,0.00,,0.00
"NOE00134502","1972-12-28",,,35.00,,0.00
"NOE00134502","1972-12-29",,,5.00,,0.00
"NOE00134502","1972-12-30",,,95.00,,0.00
"NOE00134502","1972-12-31",,,11.00,,0.00
"NOE00134502","1973-01-01",,,52.00,,0.00
"NOE00134502","1973-01-02",,,262.00,,0.00
"NOE00134502","1973-01-03",,,19.00,,0.00
"NOE00134502","1973-01-04",,,132.00,,0.00
"NOE00134502","1973-01-05",,,7.00,,0.00
"NOE00134502","1973-01-06",,,5.00,,0.00
"NOE00134502","1973-01-07",,,4.00,,0.00
"NOE00134502","1973-01-08",,,30.00,,0.00
"NOE00134502","1973-01-09",,,9.00,,0.00
"NOE00134502","1973-01-10",,,0.00,,0.00
"NOE00134502","1973-01-11",,,0.00,,0.00
"NOE00134502","1973-01-12",,,0.00,,0.00
"NOE00134502","1973-01-13",,,0.00,,0.00
"NOE00134502","1973-01-14",,,9.00,,0.00
"NOE00134502","1973-01-15",,,0.00,,0.00
"NOE00134502","1973-01-16",,,0.00,,0.00
"NOE00134502","1973-01-17",,,2.00,,0.00
"NOE00134502","1973-01-18",,,0.00,,0.00
"NOE00134502","1973-01-19",,,0.00,,0.00
"NOE00134502","1973-01-20",,,0.00,,0.00
"NOE00134502","1973-01-21",,,0.00,,0.00
"NOE00134502","1973-01-22",,,1.00,,0.00
"NOE00134502","1973-01-23",,,56.00,,0.00
"NOE00134502","1973-01-24",,,28.00,,0.00
"NOE00134502","1973-01-25",,,179.00,,0.00
"NOE00134502","1973-01-26",,,30.00,,0.00
"NOE00134502","1973-01-27",,,1.00,,0.00
"NOE00134502","1973-01-28",,,146.00,,0.00
"NOE00134502","1973-01-29",,,36.00,,220.00
"NOE00134502","1973-01-30",,,32.00,,210.00
"NOE00134502","1973-01-31",,,58.00,,40.00
"NOE00134502","1973-02-01",,,14.00,,10.00
"NOE00134502","1973-02-02",,,48.00,,0.00
"NOE00134502","1973-02-03",,,29.00,,0.00
"NOE00134502","1973-02-04",,,431.00,,0.00
"NOE00134502","1973-02-05",,,89.00,,0.00
"NOE00134502","1973-02-06",,,393.00,,0.00
"NOE00134502","1973-02-07",,,88.00,,0.00
"NOE00134502","1973-02-08",,,0.00,,0.00
"NOE00134502","1973-02-09",,,0.00,,0.00
"NOE00134502","1973-02-10",,,36.00,,0.00
"NOE00134502","1973-02-11",,,192.00,,40.00
"NOE00134502","1973-02-12",,,44.00,,0.00
"NOE00134502","1973-02-13",,,0.00,,0.00
"NOE00134502","1973-02-14",,,0.00,,0.00
"NOE00134502","1973-02-15",,,0.00,,0.00
"NOE00134502","1973-02-16",,,0.00,,0.00
"NOE00134502","1973-02-17",,,0.00,,0.00
"NOE00134502","1973-02-18",,,32.00,,0.00
"NOE00134502","1973-02-19",,,240.00,,0.00
"NOE00134502","1973-02-20",,,414.00,,0.00
"NOE00134502","1973-02-21",,,58.00,,0.00
"NOE00134502","1973-02-22",,,5.00,,0.00
"NOE00134502","1973-02-23",,,0.00,,10.00
"NOE00134502","1973-02-24",,,0.00,,0.00
"NOE00134502","1973-02-25",,,0.00,,0.00
"NOE00134502","1973-02-26",,,4.00,,0.00
"NOE00134502","1973-02-27",,,45.00,,10.00
"NOE00134502","1973-02-28",,,177.00,,0.00
"NOE00134502","1973-03-01",,,34.00,,0.00
"NOE00134502","1973-03-02",,,0.00,,0.00
"NOE00134502","1973-03-03",,,36.00,,0.00
"NOE00134502","1973-03-04",,,220.00,,0.00
"NOE00134502","1973-03-05",,,110.00,,10.00
"NOE00134502","1973-03-06",,,58.00,,10.00
"NOE00134502","1973-03-07",,,3.00,,10.00
"NOE00134502","1973-03-08",,,10.00,,10.00
"NOE00134502","1973-03-09",,,0.00,,0.00
"NOE00134502","1973-03-10",,,51.00,,0.00
"NOE00134502","1973-03-11",,,0.00,,0.00
"NOE00134502","1973-03-12",,,0.00,,0.00
"NOE00134502","1973-03-13",,,0.00,,0.00
"NOE00134502","1973-03-14",,,0.00,,0.00
"NOE00134502","1973-03-15",,,70.00,,0.00
"NOE00134502","1973-03-16",,,277.00,,0.00
"NOE00134502","1973-03-17",,,7.00,,0.00
"NOE00134502","1973-03-18",,,0.00,,0.00
"NOE00134502","1973-03-19",,,42.00,,0.00
"NOE00134502","1973-03-20",,,45.00,,0.00
"NOE00134502","1973-03-21",,,8.00,,0.00
"NOE00134502","1973-03-22",,,136.00,,0.00
"NOE00134502","1973-03-23",,,2.00,,0.00
"NOE00134502","1973-03-24",,,20.00,,0.00
"NOE00134502","1973-03-25",,,99.00,,0.00
"NOE00134502","1973-03-26",,,1.00,,0.00
"NOE00134502","1973-03-27",,,0.00,,0.00
"NOE00134502","1973-03-28",,,1.00,,0.00
"NOE00134502","1973-03-29",,,10.00,,0.00
"NOE00134502","1973-03-30",,,153.00,,0.00
"NOE00134502","1973-03-31",,,166.00,,0.00
"NOE00134502","1973-04-01",,,118.00,,0.00
"NOE00134502","1973-04-02",,,0.00,,30.00
"NOE00134502","1973-04-03",,,1.00,,0.00
"NOE00134502","1973-04-04",,,62.00,,10.00
"NOE00134502","1973-04-05",,,103.00,,0.00
"NOE00134502","1973-04-06",,,0.00,,10.00
"NOE00134502","1973-04-07",,,0.00,,0.00
"NOE00134502","1973-04-08",,,0.00,,0.00
"NOE00134502","1973-04-09",,,2.00,,0.00
"NOE00134502","1973-04-10",,,35.00,,10.00
"NOE00134502","1973-04-11",,,0.00,,20.00
"NOE00134502","1973-04-12",,,0.00,,0.00
"NOE00134502","1973-04-13",,,33.00,,0.00
"NOE00134502","1973-04-14",,,16.00,,0.00
"NOE00134502","1973-04-15",,,20.00,,0.00
"NOE00134502","1973-04-16",,,110.00,,0.00
"NOE00134502","1973-04-17",,,0.00,,0.00
"NOE00134502","1973-04-18",,,0.00,,0.00
"NOE00134502","1973-04-19",,,0.00,,0.00
"NOE00134502","1973-04-20",,,0.00,,0.00
"NOE00134502","1973-04-21",,,0.00,,0.00
"NOE00134502","1973-04-22",,,0.00,,0.00
"NOE00134502","1973-04-23",,,0.00,,0.00
"NOE00134502","1973-04-24",,,21.00,,0.00
"NOE00134502","1973-04-25",,,4.00,,0.00
"NOE00134502","1973-04-26",,,47.00,,0.00
"NOE00134502","1973-04-27",,,1.00,,20.00
"NOE00134502","1973-04-28",,,2.00,,0.00
"NOE00134502","1973-04-29",,,47.00,,0.00
"NOE00134502","1973-04-30",,,119.00,,0.00
"NOE00134502","1973-05-01",,,186.00,,0.00
"NOE00134502","1973-05-02",,,107.00,,0.00
"NOE00134502","1973-05-03",,,0.00,,0.00
"NOE00134502","1973-05-04",,,0.00,,0.00
"NOE00134502","1973-05-05",,,27.00,,0.00
"NOE00134502","1973-05-06",,,17.00,,0.00
"NOE00134502","1973-05-07",,,0.00,,0.00
"NOE00134502","1973-05-08",,,16.00,,0.00
"NOE00134502","1973-05-09",,,69.00,,0.00
"NOE00134502","1973-05-10",,,15.00,,0.00
"NOE00134502","1973-05-11",,,29.00,,0.00
"NOE00134502","1973-05-12",,,154.00,,0.00
"NOE00134502","1973-05-13",,,213.00,,0.00
"NOE00134502","1973-05-14",,,135.00,,0.00
"NOE00134502","1973-05-15",,,24.00,,0.00
"NOE00134502","1973-05-16",,,0.00,,0.00
"NOE00134502","1973-05-17",,,0.00,,0.00
"NOE00134502","1973-05-18",,,0.00,,0.00
"NOE00134502","1973-05-19",,,24.00,,0.00
"NOE00134502","1973-05-20",,,0.00,,0.00
"NOE00134502","1973-05-21",,,0.00,,0.00
"NOE00134502","1973-05-22",,,0.00,,0.00
"NOE00134502","1973-05-23",,,0.00,,0.00
"NOE00134502","1973-05-24",,,0.00,,0.00
"NOE00134502","1973-05-25",,,0.00,,0.00
"NOE00134502","1973-05-26",,,0.00,,0.00
"NOE00134502","1973-05-27",,,37.00,,0.00
"NOE00134502","1973-05-28",,,0.00,,0.00
"NOE00134502","1973-05-29",,,0.00,,0.00
"NOE00134502","1973-05-30",,,1.00,,0.00
"NOE00134502","1973-05-31",,,56.00,,0.00
"NOE00134502","1973-06-01",,,96.00,,0.00
"NOE00134502","1973-06-02",,,0.00,,0.00
"NOE00134502","1973-06-03",,,16.00,,0.00
"NOE00134502","1973-06-04",,,0.00,,0.00
"NOE00134502","1973-06-05",,,0.00,,0.00
"NOE00134502","1973-06-06",,,19.00,,0.00
"NOE00134502","1973-06-07",,,169.00,,0.00
"NOE00134502","1973-06-08",,,49.00,,0.00
"NOE00134502","1973-06-09",,,46.00,,0.00
"NOE00134502","1973-06-10",,,52.00,,0.00
"NOE00134502","1973-06-11",,,57.00,,0.00
"NOE00134502","1973-06-12",,,208.00,,0.00
"NOE00134502","1973-06-13",,,205.00,,0.00
"NOE00134502","1973-06-14",,,58.00,,0.00
"NOE00134502","1973-06-15",,,1.00,,0.00
"NOE00134502","1973-06-16",,,0.00,,0.00
"NOE00134502","1973-06-17",,,0.00,,0.00
"NOE00134502","1973-06-18",,,0.00,,0.00
"NOE00134502","1973-06-19",,,0.00,,0.00
"NOE00134502","1973-06-20",,,0.00,,0.00
"NOE00134502","1973-06-21",,,0.00,,0.00
"NOE00134502","1973-06-22",,,0.00,,0.00
"NOE00134502","1973-06-23",,,0.00,,0.00
"NOE00134502","1973-06-24",,,0.00,,0.00
"NOE00134502","1973-06-25",,,0.00,,0.00
"NOE00134502","1973-06-26",,,25.00,,0.00
"NOE00134502","1973-06-27",,,2.00,,0.00
"NOE00134502","1973-06-28",,,0.00,,0.00
"NOE00134502","1973-06-29",,,8.00,,0.00
"NOE00134502","1973-06-30",,,0.00,,0.00
"NOE00134502","1973-07-01",,,0.00,,0.00
"NOE00134502","1973-07-02",,,118.00,,0.00
"NOE00134502","1973-07-03",,,21.00,,0.00
"NOE00134502","1973-07-04",,,61.00,,0.00
"NOE00134502","1973-07-05",,,0.00,,0.00
"NOE00134502","1973-07-06",,,0.00,,0.00
"NOE00134502","1973-07-07",,,126.00,,0.00
"NOE00134502","1973-07-08",,,1.00,,0.00
"NOE00134502","1973-07-09",,,0.00,,0.00
"NOE00134502","1973-07-10",,,85.00,,0.00
"NOE00134502","1973-07-11",,,0.00,,0.00
"NOE00134502","1973-07-12",,,0.00,,0.00
"NOE00134502","1973-07-13",,,0.00,,0.00
"NOE00134502","1973-07-14",,,0.00,,0.00
"NOE00134502","1973-07-15",,,0.00,,0.00
"NOE00134502","1973-07-16",,,0.00,,0.00
"NOE00134502","1973-07-17",,,250.00,,0.00
"NOE00134502","1973-07-18",,,1.00,,0.00
"NOE00134502","1973-07-19",,,0.00,,0.00
"NOE00134502","1973-07-20",,,8.00,,0.00
"NOE00134502","1973-07-21",,,5.00,,0.00
"NOE00134502","1973-07-22",,,30.00,,0.00
"NOE00134502","1973-07-23",,,0.00,,0.00
"NOE00134502","1973-07-24",,,0.00,,0.00
"NOE00134502","1973-07-25",,,0.00,,0.00
"NOE00134502","1973-07-26",,,0.00,,0.00
"NOE00134502","1973-07-27",,,0.00,,0.00
"NOE00134502","1973-07-28",,,0.00,,0.00
"NOE00134502","1973-07-29",,,0.00,,0.00
"NOE00134502","1973-07-30",,,37.00,,0.00
"NOE00134502","1973-07-31",,,39.00,,0.00
"NOE00134502","1973-08-01",,,64.00,,0.00
"NOE00134502","1973-08-02",,,45.00,,0.00
"NOE00134502","1973-08-03",,,26.00,,0.00
"NOE00134502","1973-08-04",,,46.00,,0.00
"NOE00134502","1973-08-05",,,150.00,,0.00
"NOE00134502","1973-08-06",,,312.00,,0.00
"NOE00134502","1973-08-07",,,152.00,,0.00
"NOE00134502","1973-08-08",,,33.00,,0.00
"NOE00134502","1973-08-09",,,85.00,,0.00
"NOE00134502","1973-08-10",,,24.00,,0.00
"NOE00134502","1973-08-11",,,9.00,,0.00
"NOE00134502","1973-08-12",,,10.00,,0.00
"NOE00134502","1973-08-13",,,1.00,,0.00
"NOE00134502","1973-08-14",,,1.00,,0.00
"NOE00134502","1973-08-15",,,1.00,,0.00
"NOE00134502","1973-08-16",,,0.00,,0.00
"NOE00134502","1973-08-17",,,75.00,,0.00
"NOE00134502","1973-08-18",,,39.00,,0.00
"NOE00134502","1973-08-19",,,104.00,,0.00
"NOE00134502","1973-08-20",,,41.00,,0.00
"NOE00134502","1973-08-21",,,2.00,,0.00
"NOE00134502","1973-08-22",,,1.00,,0.00
"NOE00134502","1973-08-23",,,0.00,,0.00
"NOE00134502","1973-08-24",,,0.00,,0.00
"NOE00134502","1973-08-25",,,0.00,,0.00
"NOE00134502","1973-08-26",,,0.00,,0.00
"NOE00134502","1973-08-27",,,0.00,,0.00
"NOE00134502","1973-08-28",,,0.00,,0.00
"NOE00134502","1973-08-29",,,1.00,,0.00
"NOE00134502","1973-08-30",,,15.00,,0.00
"NOE00134502","1973-08-31",,,2.00,,0.00
"NOE00134502","1973-09-01",,,217.00,,0.00
"NOE00134502","1973-09-02",,,255.00,,0.00
"NOE00134502","1973-09-03",,,228.00,,0.00
"NOE00134502","1973-09-04",,,343.00,,0.00
"NOE00134502","1973-09-05",,,56.00,,0.00
"NOE00134502","1973-09-06",,,81.00,,0.00
"NOE00134502","1973-09-07",,,50.00,,0.00
"NOE00134502","1973-09-08",,,449.00,,0.00
"NOE00134502","1973-09-09",,,5.00,,0.00
"NOE00134502","1973-09-10",,,6.00,,0.00
"NOE00134502","1973-09-11",,,23.00,,0.00
"NOE00134502","1973-09-12",,,0.00,,0.00
"NOE00134502","1973-09-13",,,10.00,,0.00
"NOE00134502","1973-09-14",,,17.00,,0.00
"NOE00134502","1973-09-15",,,0.00,,0.00
"NOE00134502","1973-09-16",,,0.00,,0.00
"NOE00134502","1973-09-17",,,0.00,,0.00
"NOE00134502","1973-09-18",,,0.00,,0.00
"NOE00134502","1973-09-19",,,2.00,,0.00
"NOE00134502","1973-09-20",,,12.00,,0.00
"NOE00134502","1973-09-21",,,3.00,,0.00
"NOE00134502","1973-09-22",,,0.00,,0.00
"NOE00134502","1973-09-23",,,0.00,,0.00
"NOE00134502","1973-09-24",,,0.00,,0.00
"NOE00134502","1973-09-25",,,0.00,,0.00
"NOE00134502","1973-09-26",,,15.00,,0.00
"NOE00134502","1973-09-27",,,19.00,,0.00
"NOE00134502","1973-09-28",,,113.00,,0.00
"NOE00134502","1973-09-29",,,4.00,,0.00
"NOE00134502","1973-09-30",,,0.00,,0.00
"NOE00134502","1973-10-01",,,27.00,,0.00
"NOE00134502","1973-10-02",,,1.00,,0.00
"NOE00134502","1973-10-03",,,1.00,,0.00
"NOE00134502","1973-10-04",,,1.00,,0.00
"NOE00134502","1973-10-05",,,0.00,,0.00
"NOE00134502","1973-10-06",,,0.00,,0.00
"NOE00134502","1973-10-07",,,3.00,,0.00
"NOE00134502","1973-10-08",,,210.00,,0.00
"NOE00134502","1973-10-09",,,69.00,,0.00
"NOE00134502","1973-10-10",,,0.00,,0.00
"NOE00134502","1973-10-11",,,11.00,,0.00
"NOE00134502","1973-10-12",,,5.00,,0.00
"NOE00134502","1973-10-13",,,25.00,,0.00
"NOE00134502","1973-10-14",,,55.00,,0.00
"NOE00134502","1973-10-15",,,0.00,,0.00
"NOE00134502","1973-10-16",,,3.00,,0.00
"NOE00134502","1973-10-17",,,2.00,,0.00
"NOE00134502","1973-10-18",,,0.00,,0.00
"NOE00134502","1973-10-19",,,0.00,,0.00
"NOE00134502","1973-10-20",,,0.00,,0.00
"NOE00134502","1973-10-21",,,0.00,,0.00
"NOE00134502","1973-10-22",,,4.00,,0.00
"NOE00134502","1973-10-23",,,25.00,,0.00
"NOE00134502","1973-10-24",,,376.00,,0.00
"NOE00134502","1973-10-25",,,76.00,,0.00
"NOE00134502","1973-10-26",,,7.00,,0.00
"NOE00134502","1973-10-27",,,87.00,,0.00
"NOE00134502","1973-10-28",,,111.00,,0.00
"NOE00134502","1973-10-29",,,175.00,,0.00
"NOE00134502","1973-10-30",,,0.00,,0.00
"NOE00134502","1973-10-31",,,0.00,,0.00
"NOE00134502","1973-11-01",,,0.00,,0.00
"NOE00134502","1973-11-02",,,0.00,,0.00
"NOE00134502","1973-11-03",,,55.00,,0.00
"NOE00134502","1973-11-04",,,391.00,,0.00
"NOE00134502","1973-11-05",,,174.00,,0.00
"NOE00134502","1973-11-06",,,2.00,,0.00
"NOE00134502","1973-11-07",,,30.00,,0.00
"NOE00134502","1973-11-08",,,506.00,,0.00
"NOE00134502","1973-11-09",,,175.00,,0.00
"NOE00134502","1973-11-10",,,8.00,,0.00
"NOE00134502","1973-11-11",,,31.00,,0.00
"NOE00134502","1973-11-12",,,110.00,,0.00
"NOE00134502","1973-11-13",,,0.00,,30.00
"NOE00134502","1973-11-14",,,0.00,,30.00
"NOE00134502","1973-11-15",,,3.00,,30.00
"NOE00134502","1973-11-16",,,0.00,,50.00
"NOE00134502","1973-11-17",,,22.00,,50.00
"NOE00134502","1973-11-18",,,229.00,,80.00
"NOE00134502","1973-11-19",,,2.00,,250.00
"NOE00134502","1973-11-20",,,10.00,,230.00
"NOE00134502","1973-11-21",,,151.00,,210.00
"NOE00134502","1973-11-22",,,245.00,,190.00
"NOE00134502","1973-11-23",,,25.00,,100.00
"NOE00134502","1973-11-24",,,15.00,,120.00
"NOE00134502","1973-11-25",,,0.00,,130.00
"NOE00134502","1973-11-26",,,16.00,,130.00
"NOE00134502","1973-11-27",,,2.00,,150.00
"NOE00134502","1973-11-28",,,17.00,,150.00
"NOE00134502","1973-11-29",,,1.00,,160.00
"NOE00134502","1973-11-30",,,0.00,,160.00
"NOE00134502","1973-12-01",,,29.00,,160.00
"NOE00134502","1973-12-02",,,90.00,,170.00
"NOE00134502","1973-12-03",,,119.00,,150.00
"NOE00134502","1973-12-04",,,13.00,,90.00
"NOE00134502","1973-12-05",,,84.00,,60.00
"NOE00134502","1973-12-06",,,3.00,,100.00
"NOE00134502","1973-12-07",,,31.00,,100.00
"NOE00134502","1973-12-08",,,0.00,,130.00
"NOE00134502","1973-12-09",,,110.00,,130.00
"NOE00134502","1973-12-10",,,475.00,,60.00
"NOE00134502","1973-12-11",,,70.00,,0.00
"NOE00134502","1973-12-12",,,49.00,,40.00
"NOE00134502","1973-12-13",,,13.00,,20.00
"NOE00134502","1973-12-14",,,0.00,,20.00
"NOE00134502","1973-12-15",,,32.00,,20.00
"NOE00134502","1973-12-16",,,0.00,,50.00
"NOE00134502","1973-12-17",,,0.00,,50.00
"NOE00134502","1973-12-18",,,23.00,,50.00
"NOE00134502","1973-12-19",,,7.00,,70.00
"NOE00134502","1973-12-20",,,16.00,,80.00
"NOE00134502","1973-12-21",,,35.00,,20.00
"NOE00134502","1973-12-22",,,0.00,,10.00
"NOE00134502","1973-12-23",,,16.00,,10.00
"NOE00134502","1973-12-24",,,0.00,,30.00
"NOE00134502","1973-12-25",,,12.00,,20.00
"NOE00134502","1973-12-26",,,13.00,,10.00
"NOE00134502","1973-12-27",,,247.00,,0.00
"NOE00134502","1973-12-28",,,62.00,,0.00
"NOE00134502","1973-12-29",,,240.00,,0.00
"NOE00134502","1973-12-30",,,149.00,,0.00
"NOE00134502","1973-12-31",,,37.00,,0.00
"NOE00134502","1974-01-01",,,0.00,,0.00
"NOE00134502","1974-01-02",,,0.00,,0.00
"NOE00134502","1974-01-03",,,0.00,,0.00
"NOE00134502","1974-01-04",,,0.00,,0.00
"NOE00134502","1974-01-05",,,0.00,,0.00
"NOE00134502","1974-01-06",,,0.00,,0.00
"NOE00134502","1974-01-07",,,0.00,,0.00
"NOE00134502","1974-01-08",,,0.00,,0.00
"NOE00134502","1974-01-09",,,67.00,,0.00
"NOE00134502","1974-01-10",,,0.00,,0.00
"NOE00134502","1974-01-11",,,0.00,,0.00
"NOE00134502","1974-01-12",,,102.00,,0.00
"NOE00134502","1974-01-13",,,112.00,,0.00
"NOE00134502","1974-01-14",,,202.00,,0.00
"NOE00134502","1974-01-15",,,40.00,,0.00
"NOE00134502","1974-01-16",,,47.00,,0.00
"NOE00134502","1974-01-17",,,25.00,,0.00
"NOE00134502","1974-01-18",,,331.00,,0.00
"NOE00134502","1974-01-19",,,120.00,,0.00
"NOE00134502","1974-01-20",,,9.00,,0.00
"NOE00134502","1974-01-21",,,32.00,,0.00
"NOE00134502","1974-01-22",,,10.00,,0.00
"NOE00134502","1974-01-23",,,136.00,,0.00
"NOE00134502","1974-01-24",,,86.00,,0.00
"NOE00134502","1974-01-25",,,5.00,,0.00
"NOE00134502","1974-01-26",,,1.00,,0.00
"NOE00134502","1974-01-27",,,9.00,,0.00
"NOE00134502","1974-01-28",,,2.00,,0.00
"NOE00134502","1974-01-29",,,11.00,,0.00
"NOE00134502","1974-01-30",,,107.00,,0.00
"NOE00134502","1974-01-31",,,47.00,,0.00
"NOE00134502","1974-02-01",,,5.00,,0.00
"NOE00134502","1974-02-02",,,1.00,,0.00
"NOE00134502","1974-02-03",,,120.00,,0.00
"NOE00134502","1974-02-04",,,39.00,,0.00
"NOE00134502","1974-02-05",,,1.00,,0.00
"NOE00134502","1974-02-06",,,0.00,,0.00
"NOE00134502","1974-02-07",,,0.00,,0.00
"NOE00134502","1974-02-08",,,0.00,,0.00
"NOE00134502","1974-02-09",,,76.00,,0.00
"NOE00134502","1974-02-10",,,80.00,,30.00
"NOE00134502","1974-02-11",,,149.00,,0.00
"NOE00134502","1974-02-12",,,58.00,,0.00
"NOE00134502","1974-02-13",,,0.00,,0.00
"NOE00134502","1974-02-14",,,11.00,,0.00
"NOE00134502","1974-02-15",,,125.00,,0.00
"NOE00134502","1974-02-16",,,40.00,,0.00
"NOE00134502","1974-02-17",,,25.00,,0.00
"NOE00134502","1974-02-18",,,0.00,,0.00
"NOE00134502","1974-02-19",,,9.00,,0.00
"NOE00134502","1974-02-20",,,44.00,,10.00
"NOE00134502","1974-02-21",,,139.00,,0.00
"NOE00134502","1974-02-22",,,84.00,,0.00
"NOE00134502","1974-02-23",,,8.00,,0.00
"NOE00134502","1974-02-24",,,6.00,,0.00
"NOE00134502","1974-02-25",,,2.00,,0.00
"NOE00134502","1974-02-26",,,0.00,,0.00
"NOE00134502","1974-02-27",,,0.00,,0.00
"NOE00134502","1974-02-28",,,0.00,,0.00
"NOE00134502","1974-03-01",,,0.00,,0.00
"NOE00134502","1974-03-02",,,0.00,,0.00
"NOE00134502","1974-03-03",,,0.00,,0.00
"NOE00134502","1974-03-04",,,0.00,,0.00
"NOE00134502","1974-03-05",,,0.00,,0.00
"NOE00134502","1974-03-06",,,0.00,,0.00
"NOE00134502","1974-03-07",,,0.00,,0.00
"NOE00134502","1974-03-08",,,0.00,,0.00
"NOE00134502","1974-03-09",,,0.00,,0.00
"NOE00134502","1974-03-10",,,0.00,,0.00
"NOE00134502","1974-03-11",,,0.00,,0.00
"NOE00134502","1974-03-12",,,0.00,,0.00
"NOE00134502","1974-03-13",,,0.00,,0.00
"NOE00134502","1974-03-14",,,22.00,,0.00
"NOE00134502","1974-03-15",,,0.00,,10.00
"NOE00134502","1974-03-16",,,0.00,,0.00
"NOE00134502","1974-03-17",,,20.00,,0.00
"NOE00134502","1974-03-18",,,0.00,,0.00
"NOE00134502","1974-03-19",,,0.00,,0.00
"NOE00134502","1974-03-20",,,0.00,,0.00
"NOE00134502","1974-03-21",,,0.00,,0.00
"NOE00134502","1974-03-22",,,0.00,,0.00
"NOE00134502","1974-03-23",,,0.00,,0.00
"NOE00134502","1974-03-24",,,0.00,,0.00
"NOE00134502","1974-03-25",,,0.00,,0.00